Volver al catálogo

COSMOS 839 DEB

ActivoLEO
NORAD 10615·DEBRIS·🇷🇺 Russia

Lanzado Jul 8, 1976 desde Plesetsk Cosmodrome

Loading…

Próximos Pases (próximas 24 horas)

TLE

ActualizadoSource: Space-Track

Época: Sep 14, 2026, 07:55 UTC

1 10615U 76067AP  26257.33040037  .00000493  00000-0  13514-2 0  9993
2 10615  65.9979 224.5548 0663301 310.7073 206.8782 12.60696067569703

Sigue COSMOS 839 DEB en tiempo real con AllMySat

Download on the App Store